CW5763 Weather Reports


Display with metric or nautical units.
time (UTC)temp
F
wind
direction
speed
MPH
gust
MPH
rain 1hr
in
rain 24hr
in
rain mn
in
humidity
%
barometer
mb
20260509212005 59 29 0.0 3.0 0.00 0.00 0.00 58 1015.6
20260509211005 59 43 0.0 8.0 0.00 0.00 0.00 60 1015.7
20260509210005 59 19 0.0 2.0 0.00 0.00 0.00 61 1015.7
20260509205005 59 84 1.0 3.0 0.00 0.00 0.00 61 1015.5
20260509204005 60 120 1.0 5.0 0.00 0.00 0.00 59 1015.5
20260509203005 60 66 1.0 5.0 0.00 0.00 0.00 58 1015.3
20260509201005 60 109 1.0 3.0 0.00 0.00 0.00 62 1015.0
20260509200005 60 46 1.0 3.0 0.00 0.00 0.00 63 1014.8
20260509195005 60 148 1.0 3.0 0.00 0.00 0.00 65 1014.7
20260509194007 60 145 1.0 2.0 0.00 0.00 0.00 69 1014.6
20260509192005 60 140 0.0 1.0 0.00 0.00 0.00 72 1014.6
20260509191005 61 140 0.0 3.0 0.00 0.00 0.00 71 1014.7
20260509190006 61 140 1.0 7.0 0.00 0.00 0.00 70 1014.7
20260509185005 62 139 3.0 8.0 0.00 0.00 0.00 66 1014.8
20260509184005 63 136 2.0 7.0 0.00 0.00 0.00 64 1014.7
20260509183005 64 148 2.0 5.0 0.00 0.00 0.00 63 1014.5
20260509182005 64 144 1.0 3.0 0.00 0.00 0.00 61 1014.5
20260509181005 65 148 1.0 12.0 0.00 0.00 0.00 59 1014.5
20260509180005 65 129 7.0 12.0 0.00 0.00 0.00 57 1014.6
20260509174005 66 149 0.0 3.0 0.00 0.00 0.00 56 1014.4
20260509173006 66 147 0.0 3.0 0.00 0.00 0.00 56 1014.4
20260509172005 67 151 0.0 5.0 0.00 0.00 0.00 56 1014.5
20260509171005 67 153 1.0 6.0 0.00 0.00 0.00 54 1014.5
20260509165005 68 146 3.0 8.0 0.00 0.00 0.00 51 1014.5
20260509164006 68 144 2.0 9.0 0.00 0.00 0.00 52 1014.6
20260509163005 68 138 5.0 12.0 0.00 0.00 0.00 51 1014.6
20260509162005 69 135 9.0 14.0 0.00 0.00 0.00 51 1014.6
20260509161007 69 135 6.0 12.0 0.00 0.00 0.00 51 1014.6
20260509160005 69 143 5.0 14.0 0.00 0.00 0.00 51 1014.6
20260509155005 70 138 3.0 14.0 0.00 0.00 0.00 52 1014.6
20260509152007 68 130 10.0 14.0 0.00 0.00 0.00 53 1014.8
20260509150005 67 136 9.0 17.0 0.00 0.00 0.00 57 1015.0
20260509145005 67 127 11.0 16.0 0.00 0.00 0.00 56 1015.3
20260509144005 67 128 11.0 18.0 0.00 0.00 0.00 56 1015.3
20260509143007 67 130 11.0 20.0 0.00 0.00 0.00 56 1015.4
20260509142005 68 138 11.0 20.0 0.00 0.00 0.00 53 1015.5
20260509141005 69 142 9.0 17.0 0.00 0.00 0.00 53 1015.3
20260509140006 69 133 10.0 18.0 0.00 0.00 0.00 52 1015.2
20260509135006 70 140 7.0 16.0 0.00 0.00 0.00 52 1015.3
20260509134005 71 132 9.0 16.0 0.00 0.00 0.00 52 1015.2
20260509133005 71 126 9.0 15.0 0.00 0.00 0.00 51 1015.1
20260509132006 71 134 7.0 15.0 0.00 0.00 0.00 51 1015.0
20260509131005 72 136 6.0 15.0 0.00 0.00 0.00 50 1015.0
20260509130005 72 131 9.0 15.0 0.00 0.00 0.00 49 1015.2
20260509125004 71 135 7.0 15.0 0.00 0.00 0.00 49 1015.3
20260509124004 72 138 10.0 20.0 0.00 0.00 0.00 50 1015.4
20260509123007 72 130 6.0 12.0 0.00 0.00 0.00 49 1015.3
20260509122004 72 149 5.0 10.0 0.00 0.00 0.00 50 1015.4
20260509121005 71 178 3.0 12.0 0.00 0.00 0.00 51 1015.3
20260509120004 71 140 6.0 14.0 0.00 0.00 0.00 49 1015.4
20260509115005 71 164 5.0 14.0 0.00 0.00 0.00 49 1015.6
20260509113004 72 129 11.0 18.0 0.00 0.00 0.00 48 1016.0
20260509111007 70 127 3.0 12.0 0.00 0.00 0.00 48 1016.3
20260509110005 70 118 3.0 12.0 0.00 0.00 0.00 49 1016.2
20260509105004 70 130 2.0 14.0 0.00 0.00 0.00 48 1016.5
20260509103005 68 147 2.0 7.0 0.00 0.00 0.00 54 1016.6
20260509102004 67 149 2.0 7.0 0.00 0.00 0.00 58 1016.6
20260509101004 67 136 1.0 8.0 0.00 0.00 0.00 61 1016.6
20260509100005 66 138 3.0 8.0 0.00 0.00 0.00 61 1016.8
20260509095004 65 139 2.0 7.0 0.00 0.00 0.00 63 1016.8
20260509094004 64 148 0.0 3.0 0.00 0.00 0.00 67 1016.9
20260509093007 64 144 0.0 2.0 0.00 0.00 0.00 67 1016.9
20260509092004 63 164 0.0 3.0 0.00 0.00 0.00 70 1016.9
20260509091004 62 221 1.0 3.0 0.00 0.00 0.00 70 1016.8
20260509090005 61 157 0.0 3.0 0.00 0.00 0.00 74 1016.8
20260509085004 61 230 1.0 2.0 0.00 0.00 0.00 75 1016.9
20260509084004 60 184 0.0 3.0 0.00 0.00 0.00 75 1016.9
20260509082004 59 169 0.0 3.0 0.00 0.00 0.00 78 1017.0
20260509081006 58 163 0.0 3.0 0.00 0.01 0.00 81 1016.9
20260509080004 57 298 0.0 3.0 0.00 0.01 0.00 81 1016.9
20260509074004 56 295 2.0 3.0 0.00 0.02 0.00 84 1016.7
20260509073004 55 165 0.0 5.0 0.00 0.02 0.00 86 1016.7
20260509072006 54 135 0.0 6.0 0.00 0.02 0.00 88 1016.7
20260509070004 52 142 1.0 3.0 0.00 0.02 0.00 90 1016.6
20260509065004 52 140 1.0 3.0 0.00 0.04 0.00 91 1016.6
20260509064004 51 139 0.0 3.0 0.00 0.04 0.00 91 1016.7
20260509063004 51 139 0.0 1.0 0.00 0.04 0.00 92 1016.7
20260509062004 50 139 0.0 1.0 0.00 0.05 0.00 93 1016.7
20260509061004 49 139 0.0 1.0 0.00 0.05 0.00 93 1016.6
20260509055006 48 139 0.0 2.0 0.00 0.05 0.00 92 1016.5
20260509054006 48 139 1.0 3.0 0.00 0.05 0.00 92 1016.5
20260509053006 48 139 1.0 3.0 0.00 0.05 0.00 92 1016.3
20260509052006 48 139 2.0 3.0 0.00 0.05 0.00 92 1016.3
20260509051006 47 140 2.0 5.0 0.00 0.05 0.00 92 1016.3
20260509050006 47 138 2.0 3.0 0.00 0.05 0.00 92 1016.3
20260509045006 47 138 2.0 3.0 0.00 0.05 0.00 92 1016.3
20260509044006 47 138 1.0 3.0 0.00 0.05 0.00 92 1016.4
20260509043006 47 138 1.0 3.0 0.00 0.05 0.00 93 1016.3
20260509042006 47 138 1.0 3.0 0.00 0.05 0.00 93 1016.3
20260509041006 47 138 1.0 5.0 0.00 0.05 0.00 93 1016.3
20260509040006 46 138 1.0 3.0 0.00 0.05 0.00 93 1016.4
20260509034006 46 140 3.0 7.0 0.00 0.05 0.00 93 1016.5
20260509033006 46 140 1.0 3.0 0.00 0.05 0.00 93 1016.5
20260509032006 46 140 1.0 3.0 0.00 0.05 0.00 92 1016.4
20260509031006 46 140 1.0 3.0 0.00 0.05 0.00 92 1016.5
20260509030007 46 140 1.0 3.0 0.00 0.05 0.00 92 1016.6
20260509025006 46 140 2.0 5.0 0.00 0.05 0.00 92 1016.6
20260509024006 46 140 3.0 5.0 0.00 0.05 0.00 92 1016.7
20260509023006 46 140 2.0 3.0 0.00 0.05 0.00 92 1016.6
20260509022006 47 140 1.0 3.0 0.00 0.05 0.00 92 1016.6
20260509021006 47 140 1.0 3.0 0.00 0.05 0.00 92 1016.5
20260509020006 47 140 1.0 3.0 0.00 0.05 0.00 92 1016.5
20260509015006 47 140 1.0 3.0 0.00 0.05 0.00 92 1016.5
20260509014005 47 140 0.0 1.0 0.00 0.05 0.00 92 1016.6
20260509013006 47 140 0.0 0.0 0.00 0.05 0.00 92 1016.6
20260509012006 48 140 0.0 1.0 0.00 0.05 0.00 92 1016.7
20260509011006 48 140 0.0 1.0 0.00 0.05 0.00 92 1016.7
20260509010006 48 140 0.0 1.0 0.00 0.05 0.00 92 1016.8
20260509005007 48 140 0.0 0.0 0.00 0.05 0.00 92 1016.8
20260509004006 49 140 0.0 0.0 0.00 0.05 0.00 93 1016.8
20260509002005 48 140 0.0 0.0 0.00 0.05 0.00 93 1017.0
20260509001006 48 140 0.0 0.0 0.00 0.05 0.00 92 1017.0
20260509000006 49 140 0.0 0.0 0.00 0.05 0.00 92 1017.0
20260508235005 49 140 0.0 2.0 0.00 0.05 0.00 92 1017.0
20260508234006 49 140 1.0 3.0 0.00 0.05 0.00 93 1017.0
20260508233006 49 140 2.0 3.0 0.00 0.05 0.00 92 1017.1
20260508232006 49 140 1.0 2.0 0.00 0.05 0.00 91 1017.0
20260508231005 49 140 1.0 3.0 0.00 0.05 0.00 91 1017.1
20260508230005 49 140 1.0 3.0 0.00 0.05 0.00 91 1017.1
20260508225005 49 140 1.0 3.0 0.00 0.05 0.05 91 1017.1
20260508224006 49 140 2.0 3.0 0.00 0.05 0.05 90 1017.1
20260508223005 49 140 2.0 3.0 0.00 0.05 0.05 90 1017.1
20260508222005 49 140 2.0 3.0 0.00 0.05 0.05 90 1017.1
20260508221005 49 140 1.0 3.0 0.00 0.05 0.05 89 1017.0
20260508220005 49 140 1.0 3.0 0.00 0.05 0.05 89 1017.0
20260508215005 49 140 2.0 5.0 0.00 0.05 0.05 89 1017.1
20260508213005 50 146 1.0 3.0 0.00 0.05 0.05 87 1017.1